Time,TemperatureF,DewpointF,PressureIn,WindDirection,WindDirectionDegrees,WindSpeedMPH,WindSpeedGustMPH,Humidity,HourlyPrecipIn,Conditions,Clouds,dailyrainin,SoftwareType,DateUTC
2014-02-27 00:12:00,-999.0,-99.9,29.82,West,275,3.0,4.0,-999,-99.99,,,-99.99,,2014-02-27 05:12:00,
2014-02-27 00:33:00,-999.0,-99.9,29.81,West,259,3.0,4.0,-999,-99.99,,,-99.99,,2014-02-27 05:33:00,
2014-02-27 01:32:00,-999.0,-99.9,29.82,WNW,300,6.0,8.0,-999,-99.99,,,-99.99,,2014-02-27 06:32:00,
2014-02-27 01:42:00,-999.0,-99.9,29.82,NW,304,8.0,11.0,-999,-99.99,,,-99.99,,2014-02-27 06:42:00,
2014-02-27 01:52:00,-999.0,-99.9,29.82,NW,307,7.0,9.0,-999,-99.99,,,-99.99,,2014-02-27 06:52:00,
2014-02-27 02:32:00,-999.0,-99.9,29.81,NW,326,6.0,8.0,-999,-99.99,,,-99.99,,2014-02-27 07:32:00,
2014-02-27 03:02:00,-999.0,-99.9,29.82,NNW,335,12.0,17.0,-999,-99.99,,,-99.99,,2014-02-27 08:02:00,
2014-02-27 04:12:00,-999.0,-99.9,29.84,North,351,11.0,15.0,-999,-99.99,,,-99.99,,2014-02-27 09:12:00,
2014-02-27 04:22:00,-999.0,-99.9,29.83,North,350,8.0,17.0,-999,-99.99,,,-99.99,,2014-02-27 09:22:00,
2014-02-27 04:43:00,-999.0,-99.9,29.84,North,350,8.0,15.0,-999,-99.99,,,-99.99,,2014-02-27 09:43:00,
2014-02-27 05:04:00,-999.0,-99.9,29.85,NNW,336,10.0,14.0,-999,-99.99,,,-99.99,,2014-02-27 10:04:00,
2014-02-27 05:33:00,-999.0,-99.9,29.85,North,350,10.0,16.0,-999,-99.99,,,-99.99,,2014-02-27 10:33:00,
2014-02-27 05:43:00,-999.0,-99.9,29.86,NNW,345,10.0,17.0,-999,-99.99,,,-99.99,,2014-02-27 10:43:00,
2014-02-27 05:53:00,60.0,-99.9,29.85,North,-999,-999.0,-999.0,-999,-99.99,,,-99.99,,2014-02-27 10:53:00,
2014-02-27 06:34:00,-999.0,-99.9,29.85,North,2,8.0,12.0,-999,-99.99,,,-99.99,,2014-02-27 11:34:00,
2014-02-27 06:43:00,-999.0,-99.9,29.85,North,357,9.0,14.0,-999,-99.99,,,-99.99,,2014-02-27 11:43:00,
2014-02-27 07:12:00,-999.0,-99.9,29.87,North,9,8.0,12.0,-999,-99.99,,,-99.99,,2014-02-27 12:12:00,
2014-02-27 07:42:00,-999.0,-99.9,29.89,North,1,5.0,7.0,-999,-99.99,,,-99.99,,2014-02-27 12:42:00,
2014-02-27 07:52:00,-999.0,-99.9,29.90,North,3,4.0,7.0,-999,-99.99,,,-99.99,,2014-02-27 12:52:00,
2014-02-27 08:12:00,-999.0,-99.9,29.90,NNE,12,5.0,8.0,-999,-99.99,,,-99.99,,2014-02-27 13:12:00,
2014-02-27 08:42:00,-999.0,-99.9,29.92,North,9,6.0,8.0,-999,-99.99,,,-99.99,,2014-02-27 13:42:00,
2014-02-27 08:52:00,-999.0,-99.9,29.93,NNE,16,4.0,6.0,-999,-99.99,,,-99.99,,2014-02-27 13:52:00,
2014-02-27 09:32:00,-999.0,-99.9,29.93,North,358,6.0,9.0,-999,-99.99,,,-99.99,,2014-02-27 14:32:00,
2014-02-27 09:42:00,-999.0,-99.9,29.93,NNE,12,5.0,9.0,-999,-99.99,,,-99.99,,2014-02-27 14:42:00,
2014-02-27 09:53:00,-999.0,-99.9,29.92,NNE,20,7.0,10.0,-999,-99.99,,,-99.99,,2014-02-27 14:53:00,
2014-02-27 10:02:00,-999.0,-99.9,29.93,North,7,7.0,10.0,-999,-99.99,,,-99.99,,2014-02-27 15:02:00,
2014-02-27 10:34:00,-999.0,-99.9,29.95,North,8,9.0,13.0,-999,-99.99,,,-99.99,,2014-02-27 15:34:00,
2014-02-27 11:13:00,-999.0,-99.9,29.95,North,359,6.0,10.0,-999,-99.99,,,-99.99,,2014-02-27 16:13:00,
2014-02-27 11:23:00,-999.0,-99.9,29.95,NNW,330,8.0,11.0,-999,-99.99,,,-99.99,,2014-02-27 16:23:00,
2014-02-27 11:43:00,-999.0,-99.9,29.95,North,352,8.0,11.0,-999,-99.99,,,-99.99,,2014-02-27 16:43:00,
2014-02-27 12:12:00,-999.0,-99.9,29.95,NW,315,8.0,12.0,-999,-99.99,,,-99.99,,2014-02-27 17:12:00,
2014-02-27 12:22:00,-999.0,-99.9,29.95,NNW,339,8.0,11.0,-999,-99.99,,,-99.99,,2014-02-27 17:22:00,
2014-02-27 12:42:00,-999.0,-99.9,29.95,North,353,7.0,11.0,-999,-99.99,,,-99.99,,2014-02-27 17:42:00,
2014-02-27 12:53:00,-999.0,-99.9,29.95,NW,316,7.0,11.0,-999,-99.99,,,-99.99,,2014-02-27 17:53:00,
2014-02-27 13:02:00,-999.0,-99.9,29.95,NW,313,4.0,8.0,-999,-99.99,,,-99.99,,2014-02-27 18:02:00,
2014-02-27 13:32:00,-999.0,-99.9,29.94,NW,323,7.0,12.0,-999,-99.99,,,-99.99,,2014-02-27 18:32:00,
2014-02-27 13:53:00,-999.0,-99.9,29.93,NW,317,10.0,13.0,-999,-99.99,,,-99.99,,2014-02-27 18:53:00,
2014-02-27 14:02:00,-999.0,-99.9,29.93,NW,324,8.0,13.0,-999,-99.99,,,-99.99,,2014-02-27 19:02:00,
2014-02-27 14:12:00,-999.0,-99.9,29.93,NW,315,8.0,11.0,-999,-99.99,,,-99.99,,2014-02-27 19:12:00,
2014-02-27 14:52:00,-999.0,-99.9,29.92,NW,318,8.0,12.0,-999,-99.99,,,-99.99,,2014-02-27 19:52:00,
2014-02-27 15:11:00,-999.0,-99.9,29.92,NNW,327,10.0,14.0,-999,-99.99,,,-99.99,,2014-02-27 20:11:00,
2014-02-27 15:22:00,-999.0,-99.9,29.92,NNW,343,9.0,13.0,-999,-99.99,,,-99.99,,2014-02-27 20:22:00,
2014-02-27 15:32:00,-999.0,-99.9,29.92,NNW,332,6.0,11.0,-999,-99.99,,,-99.99,,2014-02-27 20:32:00,
2014-02-27 15:53:00,-999.0,-99.9,29.91,North,1,6.0,10.0,-999,-99.99,,,-99.99,,2014-02-27 20:53:00,
2014-02-27 16:53:00,-999.0,-99.9,29.93,NW,309,9.0,12.0,-999,-99.99,,,-99.99,,2014-02-27 21:53:00,
2014-02-27 17:23:00,-999.0,-99.9,29.92,NW,317,5.0,10.0,-999,-99.99,,,-99.99,,2014-02-27 22:23:00,
2014-02-27 17:33:00,-999.0,-99.9,29.93,WNW,291,10.0,11.0,-999,-99.99,,,-99.99,,2014-02-27 22:33:00,
2014-02-27 17:53:00,-999.0,-99.9,29.94,WNW,297,9.0,12.0,-999,-99.99,,,-99.99,,2014-02-27 22:53:00,
2014-02-27 18:22:00,-999.0,-99.9,29.95,NNW,330,7.0,13.0,-999,-99.99,,,-99.99,,2014-02-27 23:22:00,
2014-02-27 18:33:00,-999.0,-99.9,29.96,WNW,298,9.0,12.0,-999,-99.99,,,-99.99,,2014-02-27 23:33:00,
2014-02-27 19:02:00,-999.0,-99.9,29.96,NW,310,11.0,15.0,-999,-99.99,,,-99.99,,2014-02-28 00:02:00,
2014-02-27 19:12:00,-999.0,-99.9,29.96,NW,311,8.0,12.0,-999,-99.99,,,-99.99,,2014-02-28 00:12:00,
2014-02-27 19:22:00,-999.0,-99.9,29.96,NW,311,8.0,12.0,-999,-99.99,,,-99.99,,2014-02-28 00:22:00,
2014-02-27 19:32:00,-999.0,-99.9,29.96,NW,305,8.0,11.0,-999,-99.99,,,-99.99,,2014-02-28 00:32:00,
2014-02-27 20:02:00,-999.0,-99.9,29.95,NW,320,7.0,10.0,-999,-99.99,,,-99.99,,2014-02-28 01:02:00,
2014-02-27 20:11:00,-999.0,-99.9,29.95,NNW,328,7.0,10.0,-999,-99.99,,,-99.99,,2014-02-28 01:11:00,
2014-02-27 20:52:00,-999.0,-99.9,29.98,NW,319,7.0,11.0,-999,-99.99,,,-99.99,,2014-02-28 01:52:00,
2014-02-27 21:02:00,-999.0,-99.9,29.97,NNW,333,6.0,9.0,-999,-99.99,,,-99.99,,2014-02-28 02:02:00,
2014-02-27 21:12:00,-999.0,-99.9,29.98,NW,326,6.0,9.0,-999,-99.99,,,-99.99,,2014-02-28 02:12:00,
2014-02-27 21:42:00,-999.0,-99.9,29.95,North,9,6.0,8.0,-999,-99.99,,,-99.99,,2014-02-28 02:42:00,
2014-02-27 21:52:00,55.0,-99.9,29.96,North,-999,-999.0,-999.0,-999,-99.99,,,-99.99,,2014-02-28 02:52:00,
2014-02-27 22:11:00,-999.0,-99.9,29.96,NNW,344,6.0,9.0,-999,-99.99,,,-99.99,,2014-02-28 03:11:00,
2014-02-27 22:22:00,-999.0,-99.9,29.96,NNW,339,5.0,6.0,-999,-99.99,,,-99.99,,2014-02-28 03:22:00,
2014-02-27 22:44:00,-999.0,-99.9,29.97,NNW,339,6.0,11.0,-999,-99.99,,,-99.99,,2014-02-28 03:44:00,
2014-02-27 22:53:00,-999.0,-99.9,29.98,NNW,330,4.0,8.0,-999,-99.99,,,-99.99,,2014-02-28 03:53:00,
2014-02-27 23:03:00,-999.0,-99.9,29.98,NNW,334,5.0,9.0,-999,-99.99,,,-99.99,,2014-02-28 04:03:00,
2014-02-27 23:13:00,-999.0,-99.9,29.97,NNW,338,5.0,9.0,-999,-99.99,,,-99.99,,2014-02-28 04:13:00,
2014-02-27 23:33:00,-999.0,-99.9,29.97,NNW,328,7.0,9.0,-999,-99.99,,,-99.99,,2014-02-28 04:33:00,
2014-02-27 23:53:00,55.0,-99.9,29.98,North,-999,-999.0,-999.0,-999,-99.99,,,-99.99,,2014-02-28 04:53:00,